| time (UTC) | temp C | wind direction | speed KPH | gust KPH | rain 1hr cm | rain 24hr cm | rain mn cm | humidity % | barometer mb |
| 20260505201210 | 24 | 203 | 4.8 | 4.8 | 0.00 | 0.00 | 0.00 | 47 | 1001.1 |
| 20260505200708 | 25 | 239 | 0.0 | 1.6 | 0.00 | 0.00 | 0.00 | 47 | 1001.2 |
| 20260505200204 | 25 | 194 | 6.4 | 8.0 | 0.00 | 0.00 | 0.00 | 45 | 1001.1 |
| 20260505195700 | 25 | 222 | 4.8 | 4.8 | 0.00 | 0.00 | 0.00 | 46 | 1001.1 |
| 20260505195157 | 24 | 224 | 4.8 | 8.0 | 0.00 | 0.00 | 0.00 | 47 | 1001.4 |
| 20260505194655 | 25 | 192 | 4.8 | 4.8 | 0.00 | 0.00 | 0.00 | 46 | 1001.5 |
| 20260505194151 | 25 | 224 | 6.4 | 9.7 | 0.00 | 0.00 | 0.00 | 45 | 1001.5 |
| 20260505193647 | 25 | 223 | 4.8 | 4.8 | 0.00 | 0.00 | 0.00 | 45 | 1001.2 |
| 20260505193144 | 25 | 245 | 3.2 | 4.8 | 0.00 | 0.00 | 0.00 | 46 | 1001.4 |
| 20260505192643 | 25 | 137 | 4.8 | 4.8 | 0.00 | 0.00 | 0.00 | 47 | 1001.6 |
| 20260505192140 | 25 | 148 | 3.2 | 3.2 | 0.00 | 0.00 | 0.00 | 46 | 1001.7 |
| 20260505191639 | 25 | 227 | 4.8 | 8.0 | 0.00 | 0.00 | 0.00 | 45 | 1001.5 |
| 20260505191137 | 26 | 263 | 4.8 | 8.0 | 0.00 | 0.00 | 0.00 | 44 | 1001.4 |
| 20260505190632 | 26 | 192 | 4.8 | 8.0 | 0.00 | 0.00 | 0.00 | 41 | 1001.5 |
| 20260505190127 | 27 | 206 | 4.8 | 4.8 | 0.00 | 0.00 | 0.00 | 37 | 1001.7 |
| 20260505185624 | 27 | 266 | 6.4 | 9.7 | 0.00 | 0.00 | 0.00 | 37 | 1001.9 |
| 20260505185120 | 27 | 226 | 3.2 | 3.2 | 0.00 | 0.00 | 0.00 | 38 | 1002.0 |
| 20260505184617 | 26 | 252 | 3.2 | 3.2 | 0.00 | 0.00 | 0.00 | 38 | 1002.1 |
| 20260505184114 | 27 | 240 | 3.2 | 4.8 | 0.00 | 0.00 | 0.00 | 37 | 1002.2 |
| 20260505183610 | 27 | 215 | 6.4 | 9.7 | 0.00 | 0.00 | 0.00 | 38 | 1002.1 |
| 20260505183108 | 27 | 241 | 8.0 | 11.3 | 0.00 | 0.00 | 0.00 | 37 | 1002.2 |
| 20260505182604 | 27 | 253 | 3.2 | 3.2 | 0.00 | 0.00 | 0.00 | 38 | 1002.2 |
| 20260505182101 | 27 | 252 | 3.2 | 3.2 | 0.00 | 0.00 | 0.00 | 38 | 1002.3 |
| 20260505181558 | 26 | 158 | 3.2 | 4.8 | 0.00 | 0.00 | 0.00 | 38 | 1002.5 |
| 20260505181055 | 26 | 198 | 6.4 | 8.0 | 0.00 | 0.00 | 0.00 | 39 | 1002.4 |
| 20260505180550 | 26 | 225 | 4.8 | 8.0 | 0.00 | 0.00 | 0.00 | 39 | 1002.5 |
| 20260505180049 | 27 | 218 | 14.5 | 22.5 | 0.00 | 0.00 | 0.00 | 38 | 1002.6 |
| 20260505175549 | 27 | 230 | 6.4 | 8.0 | 0.00 | 0.00 | 0.00 | 38 | 1002.6 |
| 20260505175046 | 27 | 166 | 6.4 | 8.0 | 0.00 | 0.00 | 0.00 | 38 | 1002.7 |
| 20260505174543 | 27 | 239 | 6.4 | 8.0 | 0.00 | 0.00 | 0.00 | 38 | 1002.8 |
| 20260505174039 | 27 | 274 | 6.4 | 8.0 | 0.00 | 0.00 | 0.00 | 39 | 1002.9 |
| 20260505173536 | 26 | 182 | 6.4 | 9.7 | 0.00 | 0.00 | 0.00 | 39 | 1003.1 |
| 20260505173033 | 26 | 274 | 4.8 | 4.8 | 0.00 | 0.00 | 0.00 | 39 | 1003.1 |
| 20260505172526 | 27 | 245 | 1.6 | 3.2 | 0.00 | 0.00 | 0.00 | 40 | 1003.1 |
| 20260505172021 | 26 | 218 | 1.6 | 1.6 | 0.00 | 0.00 | 0.00 | 40 | 1003.2 |
| 20260505171517 | 26 | 212 | 4.8 | 9.7 | 0.00 | 0.00 | 0.00 | 40 | 1003.2 |
| 20260505171014 | 26 | 248 | 3.2 | 3.2 | 0.00 | 0.00 | 0.00 | 41 | 1003.2 |
| 20260505170510 | 25 | 202 | 4.8 | 4.8 | 0.00 | 0.00 | 0.00 | 42 | 1003.2 |
| 20260505170006 | 26 | 187 | 3.2 | 4.8 | 0.00 | 0.00 | 0.00 | 42 | 1003.4 |
| 20260505165501 | 25 | 258 | 4.8 | 9.7 | 0.00 | 0.00 | 0.00 | 43 | 1003.7 |
| 20260505164957 | 25 | 199 | 4.8 | 4.8 | 0.00 | 0.00 | 0.00 | 43 | 1003.8 |
| 20260505164453 | 26 | 245 | 1.6 | 1.6 | 0.00 | 0.00 | 0.00 | 42 | 1003.7 |
| 20260505163952 | 25 | 202 | 8.0 | 11.3 | 0.00 | 0.00 | 0.00 | 43 | 1003.6 |
| 20260505163450 | 25 | 247 | 3.2 | 3.2 | 0.00 | 0.00 | 0.00 | 43 | 1004.2 |
| 20260505162949 | 25 | 193 | 8.0 | 9.7 | 0.00 | 0.00 | 0.00 | 43 | 1004.3 |
| 20260505162445 | 24 | 269 | 4.8 | 8.0 | 0.00 | 0.00 | 0.00 | 44 | 1004.6 |
| 20260505161941 | 23 | 265 | 6.4 | 8.0 | 0.00 | 0.00 | 0.00 | 45 | 1004.6 |
| 20260505161438 | 24 | 238 | 8.0 | 11.3 | 0.00 | 0.00 | 0.00 | 45 | 1005.1 |
| 20260505160936 | 25 | 213 | 4.8 | 8.0 | 0.00 | 0.00 | 0.00 | 43 | 1004.8 |
| 20260505160434 | 24 | 264 | 3.2 | 3.2 | 0.00 | 0.00 | 0.00 | 44 | 1005.0 |
| 20260505152910 | 22 | 227 | 4.8 | 4.8 | 0.00 | 0.00 | 0.00 | 47 | 1005.4 |
| 20260505152407 | 22 | 264 | 4.8 | 4.8 | 0.00 | 0.00 | 0.00 | 47 | 1005.5 |
| 20260505151907 | 22 | 300 | 4.8 | 4.8 | 0.00 | 0.00 | 0.00 | 48 | 1005.8 |
| 20260505151404 | 21 | 221 | 1.6 | 3.2 | 0.00 | 0.00 | 0.00 | 50 | 1005.5 |
| 20260505150855 | 21 | 182 | 3.2 | 3.2 | 0.00 | 0.00 | 0.00 | 49 | 1005.6 |
| 20260505150353 | 21 | 200 | 4.8 | 4.8 | 0.00 | 0.00 | 0.00 | 50 | 1005.7 |
| 20260505140317 | 18 | 234 | 4.8 | 4.8 | 0.00 | 0.00 | 0.00 | 54 | 1005.4 |
| 20260505130240 | 16 | 223 | 1.6 | 3.2 | 0.00 | 0.00 | 0.00 | 61 | 1006.4 |
| 20260505124730 | 15 | 286 | 4.8 | 4.8 | 0.00 | 0.00 | 0.00 | 63 | 1006.5 |
| 20260505124227 | 15 | 208 | 1.6 | 3.2 | 0.00 | 0.00 | 0.00 | 62 | 1006.5 |
| 20260505123722 | 15 | 237 | 3.2 | 3.2 | 0.00 | 0.00 | 0.00 | 64 | 1006.2 |
| 20260505123220 | 14 | 233 | 1.6 | 1.6 | 0.00 | 0.00 | 0.00 | 65 | 1006.1 |
| 20260505122716 | 13 | 240 | 0.0 | 0.0 | 0.00 | 0.00 | 0.00 | 68 | 1005.9 |
| 20260505122214 | 13 | 236 | 1.6 | 1.6 | 0.00 | 0.00 | 0.00 | 68 | 1005.7 |
| 20260505121710 | 13 | 242 | 0.0 | 1.6 | 0.00 | 0.00 | 0.00 | 68 | 1005.9 |
| 20260505121207 | 13 | 213 | 3.2 | 3.2 | 0.00 | 0.00 | 0.00 | 68 | 1006.1 |
| 20260505120703 | 13 | 220 | 1.6 | 3.2 | 0.00 | 0.00 | 0.00 | 69 | 1006.0 |
| 20260505120159 | 13 | 213 | 0.0 | 1.6 | 0.00 | 0.00 | 0.00 | 70 | 1006.4 |
| 20260505115658 | 12 | 212 | 1.6 | 1.6 | 0.00 | 0.00 | 0.00 | 71 | 1006.2 |
| 20260505115156 | 12 | 250 | 0.0 | 0.0 | 0.00 | 0.00 | 0.00 | 72 | 1006.0 |
| 20260505114654 | 12 | 251 | 0.0 | 0.0 | 0.00 | 0.00 | 0.00 | 75 | 1006.3 |
| 20260505114149 | 11 | 244 | 0.0 | 0.0 | 0.00 | 0.00 | 0.00 | 77 | 1006.2 |
| 20260505113646 | 11 | 251 | 0.0 | 0.0 | 0.00 | 0.00 | 0.00 | 77 | 1006.4 |
| 20260505113143 | 10 | 251 | 0.0 | 0.0 | 0.00 | 0.00 | 0.00 | 81 | 1006.3 |
| 20260505112639 | 10 | 245 | 0.0 | 0.0 | 0.00 | 0.00 | 0.00 | 83 | 1006.3 |
| 20260505112138 | 8 | 244 | 0.0 | 0.0 | 0.00 | 0.00 | 0.00 | 87 | 1006.4 |
| 20260505111637 | 8 | 242 | 0.0 | 0.0 | 0.00 | 0.00 | 0.00 | 88 | 1006.3 |
| 20260505111133 | 7 | 225 | 0.0 | 0.0 | 0.00 | 0.00 | 0.00 | 92 | 1006.4 |
| 20260505110629 | 7 | 242 | 0.0 | 0.0 | 0.00 | 0.00 | 0.00 | 94 | 1006.6 |
| 20260505110127 | 6 | 250 | 0.0 | 0.0 | 0.00 | 0.00 | 0.00 | 94 | 1006.7 |
| 20260505102102 | 6 | 246 | 0.0 | 0.0 | 0.00 | 0.00 | 0.00 | 95 | 1006.4 |
| 20260505101601 | 6 | 246 | 0.0 | 0.0 | 0.00 | 0.00 | 0.00 | 95 | 1006.4 |
| 20260505101056 | 6 | 246 | 0.0 | 0.0 | 0.00 | 0.00 | 0.00 | 95 | 1006.4 |
| 20260505100553 | 6 | 246 | 0.0 | 0.0 | 0.00 | 0.00 | 0.00 | 94 | 1006.5 |
| 20260505100050 | 6 | 246 | 0.0 | 0.0 | 0.00 | 0.00 | 0.00 | 94 | 1006.3 |
| 20260505095546 | 6 | 246 | 0.0 | 0.0 | 0.00 | 0.00 | 0.00 | 94 | 1006.4 |
| 20260505095043 | 6 | 245 | 0.0 | 0.0 | 0.00 | 0.00 | 0.00 | 94 | 1006.4 |
| 20260505094539 | 6 | 246 | 0.0 | 0.0 | 0.00 | 0.00 | 0.00 | 94 | 1006.7 |
| 20260505094036 | 6 | 246 | 0.0 | 0.0 | 0.00 | 0.00 | 0.00 | 94 | 1006.5 |
| 20260505093532 | 6 | 246 | 0.0 | 0.0 | 0.00 | 0.00 | 0.00 | 94 | 1006.4 |
| 20260505093030 | 6 | 248 | 0.0 | 0.0 | 0.00 | 0.00 | 0.00 | 94 | 1006.2 |
| 20260505092527 | 6 | 248 | 0.0 | 0.0 | 0.00 | 0.00 | 0.00 | 94 | 1006.3 |
| 20260505092025 | 6 | 248 | 0.0 | 0.0 | 0.00 | 0.00 | 0.00 | 93 | 1006.4 |
| 20260505091522 | 6 | 248 | 0.0 | 0.0 | 0.00 | 0.00 | 0.00 | 93 | 1006.3 |
| 20260505091020 | 6 | 248 | 0.0 | 0.0 | 0.00 | 0.00 | 0.00 | 93 | 1006.3 |
| 20260505090518 | 6 | 248 | 0.0 | 0.0 | 0.00 | 0.00 | 0.00 | 93 | 1006.4 |
| 20260505090015 | 6 | 247 | 0.0 | 0.0 | 0.00 | 0.00 | 0.00 | 92 | 1006.6 |
| 20260505085513 | 6 | 245 | 0.0 | 0.0 | 0.00 | 0.00 | 0.00 | 92 | 1006.4 |
| 20260505085011 | 6 | 244 | 0.0 | 0.0 | 0.00 | 0.00 | 0.00 | 92 | 1006.6 |
| 20260505084509 | 6 | 244 | 0.0 | 0.0 | 0.00 | 0.00 | 0.00 | 92 | 1006.6 |
| 20260505084007 | 6 | 244 | 0.0 | 0.0 | 0.00 | 0.00 | 0.00 | 91 | 1006.6 |
| 20260505083504 | 6 | 224 | 0.0 | 0.0 | 0.00 | 0.00 | 0.00 | 92 | 1006.5 |
| 20260505083000 | 6 | 251 | 0.0 | 0.0 | 0.00 | 0.00 | 0.00 | 91 | 1006.6 |
| 20260505082455 | 7 | 251 | 0.0 | 0.0 | 0.00 | 0.00 | 0.00 | 91 | 1006.7 |
| 20260505081953 | 7 | 251 | 0.0 | 0.0 | 0.00 | 0.00 | 0.00 | 90 | 1006.8 |
| 20260505081449 | 7 | 251 | 0.0 | 0.0 | 0.00 | 0.00 | 0.00 | 89 | 1006.7 |
| 20260505080946 | 7 | 251 | 0.0 | 0.0 | 0.00 | 0.00 | 0.00 | 89 | 1006.9 |
| 20260505080442 | 7 | 252 | 0.0 | 0.0 | 0.00 | 0.00 | 0.00 | 90 | 1007.0 |
| 20260505075938 | 7 | 244 | 0.0 | 0.0 | 0.00 | 0.00 | 0.00 | 90 | 1007.0 |
| 20260505075435 | 7 | 244 | 0.0 | 0.0 | 0.00 | 0.00 | 0.00 | 90 | 1006.8 |
| 20260505074932 | 7 | 244 | 0.0 | 0.0 | 0.00 | 0.00 | 0.00 | 90 | 1006.7 |
| 20260505074430 | 7 | 243 | 0.0 | 0.0 | 0.00 | 0.00 | 0.00 | 90 | 1006.6 |
| 20260505073926 | 7 | 243 | 0.0 | 0.0 | 0.00 | 0.00 | 0.00 | 90 | 1006.7 |
| 20260505073424 | 7 | 243 | 0.0 | 0.0 | 0.00 | 0.00 | 0.00 | 89 | 1006.8 |
| 20260505072921 | 7 | 243 | 0.0 | 0.0 | 0.00 | 0.00 | 0.00 | 89 | 1006.7 |
| 20260505072417 | 7 | 243 | 0.0 | 0.0 | 0.00 | 0.00 | 0.00 | 89 | 1006.4 |
| 20260505071914 | 7 | 243 | 0.0 | 0.0 | 0.00 | 0.00 | 0.00 | 88 | 1006.8 |
| 20260505071410 | 7 | 245 | 0.0 | 0.0 | 0.00 | 0.00 | 0.00 | 88 | 1006.8 |
| 20260505070908 | 8 | 245 | 0.0 | 0.0 | 0.00 | 0.00 | 0.00 | 87 | 1006.8 |
| 20260505070404 | 8 | 245 | 0.0 | 0.0 | 0.00 | 0.00 | 0.00 | 85 | 1006.7 |
| 20260505065900 | 8 | 245 | 0.0 | 0.0 | 0.00 | 0.00 | 0.00 | 84 | 1006.8 |
| 20260505065356 | 8 | 245 | 0.0 | 0.0 | 0.00 | 0.00 | 0.00 | 84 | 1006.8 |
| 20260505064853 | 8 | 244 | 0.0 | 0.0 | 0.00 | 0.00 | 0.00 | 82 | 1006.6 |
| 20260505064350 | 9 | 244 | 0.0 | 0.0 | 0.00 | 0.00 | 0.00 | 81 | 1006.8 |
| 20260505063849 | 10 | 243 | 0.0 | 0.0 | 0.00 | 0.00 | 0.00 | 78 | 1006.7 |
| 20260505063344 | 9 | 235 | 0.0 | 0.0 | 0.00 | 0.00 | 0.00 | 78 | 1006.5 |
| 20260505062841 | 10 | 243 | 0.0 | 0.0 | 0.00 | 0.00 | 0.00 | 77 | 1006.6 |
| 20260505062339 | 9 | 244 | 0.0 | 0.0 | 0.00 | 0.00 | 0.00 | 77 | 1006.7 |
| 20260505061835 | 9 | 243 | 0.0 | 0.0 | 0.00 | 0.00 | 0.00 | 78 | 1006.8 |
| 20260505061333 | 9 | 243 | 0.0 | 0.0 | 0.00 | 0.00 | 0.00 | 78 | 1006.8 |
| 20260505060831 | 8 | 236 | 0.0 | 0.0 | 0.00 | 0.00 | 0.00 | 81 | 1006.7 |
| 20260505060327 | 8 | 244 | 0.0 | 0.0 | 0.00 | 0.00 | 0.00 | 82 | 1006.6 |
| 20260505055823 | 8 | 245 | 0.0 | 0.0 | 0.00 | 0.00 | 0.00 | 84 | 1006.7 |
| 20260505055319 | 8 | 247 | 0.0 | 0.0 | 0.00 | 0.00 | 0.00 | 84 | 1006.9 |
| 20260505054817 | 8 | 245 | 0.0 | 0.0 | 0.00 | 0.00 | 0.00 | 84 | 1006.6 |
| 20260505054314 | 9 | 245 | 0.0 | 0.0 | 0.00 | 0.00 | 0.00 | 82 | 1006.8 |
| 20260505053812 | 9 | 244 | 0.0 | 0.0 | 0.00 | 0.00 | 0.00 | 80 | 1006.6 |
| 20260505053309 | 10 | 245 | 0.0 | 0.0 | 0.00 | 0.00 | 0.00 | 78 | 1006.8 |
| 20260505052806 | 10 | 244 | 0.0 | 0.0 | 0.00 | 0.00 | 0.00 | 75 | 1006.6 |
| 20260505052304 | 10 | 244 | 0.0 | 0.0 | 0.00 | 0.00 | 0.00 | 73 | 1006.6 |
| 20260505051800 | 11 | 244 | 0.0 | 0.0 | 0.00 | 0.00 | 0.00 | 71 | 1006.6 |
| 20260505051257 | 11 | 238 | 0.0 | 0.0 | 0.00 | 0.00 | 0.00 | 69 | 1006.6 |
| 20260505050755 | 11 | 245 | 0.0 | 0.0 | 0.00 | 0.00 | 0.00 | 70 | 1006.7 |
| 20260505050254 | 11 | 245 | 0.0 | 0.0 | 0.00 | 0.00 | 0.00 | 70 | 1006.5 |
| 20260505041723 | 11 | 229 | 0.0 | 0.0 | 0.00 | 0.00 | 0.00 | 66 | 1006.5 |
| 20260505041220 | 11 | 229 | 0.0 | 0.0 | 0.00 | 0.00 | 0.00 | 67 | 1006.3 |
| 20260505040718 | 11 | 234 | 0.0 | 0.0 | 0.00 | 0.00 | 0.00 | 68 | 1006.1 |
| 20260505040215 | 11 | 244 | 0.0 | 0.0 | 0.00 | 0.00 | 0.00 | 71 | 1006.1 |
| 20260505035712 | 11 | 244 | 0.0 | 0.0 | 0.00 | 0.00 | 0.00 | 72 | 1005.8 |
| 20260505035208 | 10 | 242 | 0.0 | 0.0 | 0.00 | 0.00 | 0.00 | 75 | 1006.2 |
| 20260505034704 | 10 | 252 | 1.6 | 1.6 | 0.00 | 0.00 | 0.00 | 77 | 1005.9 |
| 20260505034202 | 10 | 251 | 0.0 | 1.6 | 0.00 | 0.00 | 0.00 | 79 | 1005.9 |
| 20260505033657 | 9 | 244 | 0.0 | 0.0 | 0.00 | 0.00 | 0.00 | 85 | 1005.7 |
| 20260505033156 | 9 | 240 | 0.0 | 0.0 | 0.00 | 0.00 | 0.00 | 85 | 1005.6 |
| 20260505032654 | 9 | 240 | 0.0 | 0.0 | 0.00 | 0.00 | 0.00 | 85 | 1005.7 |
| 20260505032149 | 9 | 240 | 0.0 | 0.0 | 0.00 | 0.00 | 0.00 | 85 | 1005.5 |
| 20260505031647 | 9 | 240 | 0.0 | 0.0 | 0.00 | 0.00 | 0.00 | 85 | 1005.5 |
| 20260505031143 | 10 | 240 | 0.0 | 0.0 | 0.00 | 0.00 | 0.00 | 84 | 1005.5 |
| 20260505030640 | 10 | 239 | 0.0 | 0.0 | 0.00 | 0.00 | 0.00 | 84 | 1005.5 |
| 20260505030136 | 10 | 240 | 0.0 | 0.0 | 0.00 | 0.00 | 0.00 | 84 | 1005.5 |
| 20260505025632 | 10 | 241 | 0.0 | 0.0 | 0.00 | 0.00 | 0.00 | 83 | 1005.6 |
| 20260505025131 | 10 | 241 | 0.0 | 0.0 | 0.00 | 0.00 | 0.00 | 84 | 1005.6 |
| 20260505024628 | 10 | 241 | 0.0 | 0.0 | 0.00 | 0.00 | 0.00 | 83 | 1005.4 |
| 20260505024125 | 10 | 241 | 0.0 | 0.0 | 0.00 | 0.00 | 0.00 | 82 | 1005.4 |
| 20260505023622 | 10 | 240 | 0.0 | 0.0 | 0.00 | 0.00 | 0.00 | 81 | 1005.7 |
| 20260505023120 | 11 | 240 | 0.0 | 0.0 | 0.00 | 0.00 | 0.00 | 80 | 1005.5 |
| 20260505022617 | 11 | 239 | 0.0 | 0.0 | 0.00 | 0.00 | 0.00 | 80 | 1005.6 |
| 20260505022114 | 11 | 254 | 0.0 | 0.0 | 0.00 | 0.00 | 0.00 | 79 | 1005.7 |
| 20260505021610 | 10 | 243 | 0.0 | 0.0 | 0.00 | 0.00 | 0.00 | 81 | 1005.8 |
| 20260505021107 | 11 | 244 | 0.0 | 0.0 | 0.00 | 0.00 | 0.00 | 80 | 1006.0 |
| 20260505020603 | 11 | 244 | 0.0 | 0.0 | 0.00 | 0.00 | 0.00 | 77 | 1005.4 |
| 20260505020059 | 11 | 244 | 0.0 | 0.0 | 0.00 | 0.00 | 0.00 | 78 | 1005.5 |
| 20260505015556 | 11 | 244 | 0.0 | 0.0 | 0.00 | 0.00 | 0.00 | 78 | 1005.5 |
| 20260505015053 | 11 | 244 | 0.0 | 0.0 | 0.00 | 0.00 | 0.00 | 78 | 1005.5 |
| 20260505014550 | 11 | 244 | 0.0 | 0.0 | 0.00 | 0.00 | 0.00 | 77 | 1005.6 |
| 20260505014047 | 11 | 244 | 0.0 | 0.0 | 0.00 | 0.00 | 0.00 | 77 | 1005.2 |
| 20260505013544 | 11 | 244 | 0.0 | 0.0 | 0.00 | 0.00 | 0.00 | 75 | 1005.5 |
| 20260505013041 | 11 | 244 | 0.0 | 0.0 | 0.00 | 0.00 | 0.00 | 74 | 1005.2 |
| 20260505012539 | 12 | 244 | 0.0 | 0.0 | 0.00 | 0.00 | 0.00 | 74 | 1005.3 |
| 20260505012036 | 12 | 244 | 0.0 | 0.0 | 0.00 | 0.00 | 0.00 | 74 | 1005.2 |
| 20260505011536 | 12 | 244 | 0.0 | 0.0 | 0.00 | 0.00 | 0.00 | 74 | 1005.0 |
| 20260505011034 | 12 | 244 | 0.0 | 0.0 | 0.00 | 0.00 | 0.00 | 75 | 1005.3 |
| 20260505010529 | 12 | 245 | 0.0 | 0.0 | 0.00 | 0.00 | 0.00 | 74 | 1005.1 |
| 20260505010026 | 12 | 245 | 0.0 | 0.0 | 0.00 | 0.00 | 0.00 | 69 | 1004.8 |
| 20260505005522 | 12 | 245 | 0.0 | 0.0 | 0.00 | 0.00 | 0.00 | 72 | 1005.0 |
| 20260505005020 | 12 | 245 | 0.0 | 0.0 | 0.00 | 0.00 | 0.00 | 70 | 1004.9 |
| 20260505004517 | 12 | 245 | 0.0 | 0.0 | 0.00 | 0.00 | 0.00 | 70 | 1004.6 |
| 20260505004014 | 13 | 245 | 0.0 | 0.0 | 0.00 | 0.00 | 0.00 | 67 | 1004.6 |
| 20260505003511 | 13 | 245 | 0.0 | 0.0 | 0.00 | 0.00 | 0.00 | 67 | 1004.5 |
| 20260505003008 | 13 | 247 | 0.0 | 0.0 | 0.00 | 0.00 | 0.00 | 67 | 1004.5 |
| 20260505002503 | 13 | 247 | 0.0 | 0.0 | 0.00 | 0.00 | 0.00 | 64 | 1004.2 |
| 20260505002002 | 13 | 248 | 0.0 | 0.0 | 0.00 | 0.00 | 0.00 | 64 | 1004.3 |
| 20260505001459 | 13 | 247 | 0.0 | 0.0 | 0.00 | 0.00 | 0.00 | 62 | 1004.6 |
| 20260505000956 | 14 | 245 | 0.0 | 0.0 | 0.00 | 0.00 | 0.00 | 62 | 1004.0 |
| 20260505000454 | 14 | 245 | 0.0 | 0.0 | 0.00 | 0.00 | 0.00 | 60 | 1004.3 |
| 20260504235950 | 15 | 245 | 0.0 | 0.0 | 0.00 | 0.00 | 0.00 | 58 | 1004.1 |
| 20260504235448 | 15 | 245 | 0.0 | 0.0 | 0.00 | 0.00 | 0.00 | 56 | 1004.1 |
| 20260504234944 | 15 | 246 | 0.0 | 0.0 | 0.00 | 0.00 | 0.00 | 56 | 1003.9 |
| 20260504234441 | 16 | 245 | 0.0 | 0.0 | 0.00 | 0.00 | 0.00 | 54 | 1003.8 |
| 20260504233938 | 16 | 244 | 0.0 | 0.0 | 0.00 | 0.00 | 0.00 | 50 | 1003.9 |
| 20260504233434 | 17 | 245 | 0.0 | 0.0 | 0.00 | 0.00 | 0.00 | 51 | 1003.8 |
| 20260504232931 | 17 | 245 | 0.0 | 0.0 | 0.00 | 0.00 | 0.00 | 47 | 1003.7 |
| 20260504232428 | 18 | 245 | 0.0 | 0.0 | 0.00 | 0.00 | 0.00 | 43 | 1003.6 |
| 20260504231925 | 18 | 245 | 0.0 | 0.0 | 0.00 | 0.00 | 0.00 | 41 | 1003.8 |
| 20260504231421 | 18 | 245 | 0.0 | 0.0 | 0.00 | 0.00 | 0.00 | 44 | 1003.6 |
| 20260504230917 | 18 | 255 | 0.0 | 0.0 | 0.00 | 0.00 | 0.00 | 43 | 1003.6 |
| 20260504230415 | 19 | 236 | 0.0 | 0.0 | 0.00 | 0.00 | 0.00 | 43 | 1003.5 |
| 20260504225913 | 19 | 250 | 0.0 | 0.0 | 0.00 | 0.00 | 0.00 | 40 | 1003.4 |
| 20260504225410 | 19 | 263 | 1.6 | 1.6 | 0.00 | 0.00 | 0.00 | 39 | 1003.4 |
| 20260504224907 | 20 | 245 | 0.0 | 0.0 | 0.00 | 0.00 | 0.00 | 43 | 1003.1 |
| 20260504224403 | 20 | 236 | 0.0 | 0.0 | 0.00 | 0.00 | 0.00 | 38 | 1003.1 |
| 20260504223901 | 20 | 248 | 0.0 | 0.0 | 0.00 | 0.00 | 0.00 | 39 | 1003.1 |
| 20260504223356 | 20 | 246 | 3.2 | 3.2 | 0.00 | 0.00 | 0.00 | 38 | 1003.0 |
| 20260504222852 | 20 | 251 | 0.0 | 1.6 | 0.00 | 0.00 | 0.00 | 38 | 1003.2 |
| 20260504222349 | 20 | 264 | 3.2 | 3.2 | 0.00 | 0.00 | 0.00 | 38 | 1003.3 |
| 20260504221848 | 20 | 227 | 1.6 | 1.6 | 0.00 | 0.00 | 0.00 | 38 | 1003.4 |
| 20260504221344 | 20 | 231 | 1.6 | 1.6 | 0.00 | 0.00 | 0.00 | 38 | 1003.2 |
| 20260504220842 | 20 | 236 | 1.6 | 1.6 | 0.00 | 0.00 | 0.00 | 38 | 1003.1 |
| 20260504220338 | 20 | 254 | 1.6 | 3.2 | 0.00 | 0.00 | 0.00 | 37 | 1003.2 |
| 20260504215835 | 20 | 240 | 1.6 | 1.6 | 0.00 | 0.00 | 0.00 | 38 | 1003.2 |
| 20260504215331 | 20 | 228 | 3.2 | 3.2 | 0.00 | 0.00 | 0.00 | 38 | 1003.1 |
| 20260504214828 | 20 | 269 | 1.6 | 3.2 | 0.00 | 0.00 | 0.00 | 37 | 1003.3 |
| 20260504214325 | 20 | 269 | 4.8 | 9.7 | 0.00 | 0.00 | 0.00 | 36 | 1003.1 |
| 20260504213821 | 21 | 196 | 3.2 | 3.2 | 0.00 | 0.00 | 0.00 | 36 | 1003.3 |
| 20260504213317 | 21 | 269 | 4.8 | 4.8 | 0.00 | 0.00 | 0.00 | 36 | 1003.2 |
| 20260504212815 | 21 | 253 | 4.8 | 4.8 | 0.00 | 0.00 | 0.00 | 37 | 1003.1 |
| 20260504212311 | 20 | 223 | 6.4 | 8.0 | 0.00 | 0.00 | 0.00 | 38 | 1003.2 |
| 20260504211809 | 20 | 253 | 0.0 | 0.0 | 0.00 | 0.00 | 0.00 | 39 | 1003.3 |
| 20260504211304 | 21 | 292 | 1.6 | 1.6 | 0.00 | 0.00 | 0.00 | 38 | 1003.1 |
| 20260504210802 | 20 | 251 | 4.8 | 8.0 | 0.00 | 0.00 | 0.00 | 37 | 1003.1 |
| 20260504210259 | 20 | 279 | 0.0 | 1.6 | 0.00 | 0.00 | 0.00 | 42 | 1003.2 |
| 20260504205756 | 20 | 256 | 0.0 | 1.6 | 0.00 | 0.00 | 0.00 | 41 | 1003.0 |
| 20260504205254 | 19 | 246 | 1.6 | 1.6 | 0.00 | 0.00 | 0.00 | 41 | 1003.0 |
| 20260504204752 | 19 | 258 | 3.2 | 3.2 | 0.00 | 0.00 | 0.00 | 43 | 1003.0 |
| 20260504204250 | 20 | 304 | 4.8 | 4.8 | 0.00 | 0.00 | 0.00 | 40 | 1003.0 |
| 20260504203749 | 20 | 280 | 1.6 | 3.2 | 0.00 | 0.00 | 0.00 | 39 | 1003.1 |
| 20260504203246 | 20 | 251 | 1.6 | 3.2 | 0.00 | 0.00 | 0.00 | 40 | 1003.0 |
| 20260504202741 | 20 | 232 | 4.8 | 4.8 | 0.00 | 0.00 | 0.00 | 40 | 1003.2 |
| 20260504202239 | 20 | 245 | 3.2 | 3.2 | 0.00 | 0.00 | 0.00 | 40 | 1002.9 |
| 20260504201736 | 20 | 229 | 4.8 | 4.8 | 0.00 | 0.00 | 0.00 | 40 | 1003.1 |